Location: Knowlton
(51.2333°N, 1.2667°E)
Time: 10:56:14
(UTC+00:00)

Cosmos 1408 Rocket - Pass Details

Date: 18 April 2021
Orbit: 601 x 631 km, 82.6° (Epoch: 16 May)

Event Time Altitude Azimuth Distance (km) Brightness Sun altitude
Rises 21:59:24 0° 348° (NNW) 2,866 8.2 -22.8°
Reaches altitude 10° 22:01:37 10° 348° (NNW) 1,959 7.1 -23.0°
Maximum altitude 22:05:56 81° 262° (W) 619 3.4 -23.3°
Enters shadow 22:06:08 78° 220° (SW) 625 3.4 -23.4°
